Home > Weather > Telford > Past weeks

Flag for United Kingdom Past Weather in Telford, England, United Kingdom — Yesterday and Last 2 Weeks

Now
63 °F

Rain. Passing clouds.


Feels Like: 63 °F
Forecast: 50 / 66 °F
Wind: 2 mph from Northeast

Location: Shawbury

Current Time: Aug 25, 2016 at 11:17:43 PM

Latest Report: Aug 25, 2016 at 9:50 PM


Visibility: 4 mi

Pressure: 29.95 "Hg

Humidity: 94%

Dew Point: 61 °F

Location of TelfordLocation

Past Weather in Telford — Graph

°F

Telford Temperature Yesterday

Maximum temperature yesterday: 70 °F (at 1:50 PM)
Minimum temperature yesterday: 59 °F (at 12:50 AM)
Average temperature yesterday: 63 °F

High & Low Weather Summary for the Past Weeks

 TemperatureHumidityPressure
High81 °F (Aug 23, 3:50 PM)100% (Aug 15, 1:50 AM)30.30 "Hg (Aug 15, 1:50 AM)
Low45 °F (Aug 15, 4:50 AM)41% (Aug 15, 3:50 PM)29.47 "Hg (Aug 20, 4:50 AM)
Average63 °F78%30.02 "Hg
* Reported Aug 10 9:50 PM — Aug 25 9:50 PM, Telford, Weather by CustomWeather, © 2016

Note: Actual official high and low records may vary slightly from our data, if they occured in-between our weather recording intervals... More about our weather records

Advertising

Telford Weather History for the Previous 24 Hours

Scroll right to see more
 ConditionsComfort  
Time TempWeatherWind HumidityBarometerVisibility
9:50 PM
Thu, Aug 25
63 °FRain. Passing clouds.2 mph94%29.95 "Hg4 mi
8:50 PM63 °FRain. Broken clouds.5 mph100%29.95 "Hg2 mi
7:50 PM63 °FDrizzle. Broken clouds.3 mph100%29.95 "Hg2 mi
6:50 PM64 °FRain. More clouds than sun.1 mph94%29.95 "Hg2 mi
5:50 PM64 °FFog.2 mph94%29.95 "Hg3 mi
4:50 PM64 °FDrizzle. Low clouds.2 mph88%29.98 "Hg4 mi
3:50 PM64 °FLow clouds.2 mph88%29.98 "Hg4 mi
2:50 PM64 °FFog.2 mph88%29.98 "Hg4 mi
1:50 PM63 °FFog.2 mph94%30.01 "Hg4 mi
12:50 PM63 °FLight rain. Partly sunny.3 mph94%30.01 "Hg2 mi
11:50 AM63 °FRain. Low clouds.2 mph94%30.01 "Hg2 mi
10:50 AM61 °FFog.1 mph94%30.04 "Hg2 mi
9:50 AM61 °FLow clouds.1 mph94%30.04 "Hg2 mi
8:50 AM61 °FFog.6 mph94%30.04 "Hg2 mi
7:50 AM59 °FFog.2 mph100%30.04 "Hg2 mi
6:50 AM59 °FFog.5 mph94%30.04 "Hg3 mi
5:50 AM59 °FFog.5 mph94%30.04 "Hg4 mi
4:50 AM59 °FFog.2 mph94%30.04 "Hg6 mi
3:50 AM59 °FLight rain. Passing clouds.2 mph94%30.04 "HgN/A
2:50 AM59 °FRain. Partly cloudy.3 mph94%30.07 "Hg3 mi
1:50 AM59 °FLots of rain. Passing clouds.5 mph94%30.09 "Hg2 mi
12:50 AM61 °FPassing clouds.7 mph83%30.07 "HgN/A
11:50 PM
Wed, Aug 24
61 °FPassing clouds.8 mph83%30.09 "HgN/A
Weather by CustomWeather, © 2016

See weather overviewHow to use our weather pages